Weather History for KFKL - March, 2014

Change the Weather History Date:

Thursday, March 13, 2014

  Actual Average Record
Temperature  
Mean Temperature 10 °F -  
Max Temperature 21 °F 44 °F 78 °F (1990)
Min Temperature 1 °F 23 °F -9 °F (1984)
Degree Days  
Heating Degree Days 55    
Moisture  
Dew Point 0 °F    
Average Humidity 60    
Maximum Humidity 78    
Minimum Humidity 46    
Precipitation  
Precipitation 0.00 in - - ()
Sea Level Pressure  
Sea Level Pressure 29.94 in    
Wind  
Wind Speed 10 mph (WNW)    
Max Wind Speed 18 mph    
Max Gust Speed 28 mph    
Visibility 9 miles    
Events      
Averages and records for this station are not official NWS values.
T = Trace of Precipitation, MM = Missing Value Source: NWS Daily Summary

Daily Weather History Graph

Daily Weather History Graph

Search for Another Location

Airport or City:

Trip Planner

Search our weather history database for the weather conditions in past years. The results will help you decide how hot, cold, wet, or windy it might be!

Date:

Astronomy

Mar. 13, 2014 Rise Set
Actual Time 7:34 AM EDT 7:23 PM EDT
Civil Twilight 7:07 AM EDT 7:51 PM EDT
Nautical Twilight 6:34 AM EDT 8:23 PM EDT
Astronomical Twilight 6:02 AM EDT 8:56 PM EDT
Moon 4:46 PM EDT (3/13) 5:42 AM EDT (3/13)
Length of Visible Light 12h 44m
Length of Day
11h 49m
Waxing Gibbous, 91% of the Moon is Illuminated
Mar 13
Waxing Gibbous
Mar 16
Full
Mar 23
Last Quarter
Mar 30
New
Apr 7
First Quarter

Hourly Weather History & Observations

Time (EDT) Temp. Windchill Dew Point Humidity Pressure Visibility Wind Dir Wind Speed Gust Speed Precip Events Conditions
12:15 AM 10.4 °F -3.3 °F 3.2 °F 73% 29.74 in 2.5 mi NW 10.4 mph 16.1 mph N/A   Overcast
12:35 AM 10.4 °F -2.4 °F 3.2 °F 73% 29.74 in 1.8 mi NW 9.2 mph - N/A   Overcast
12:55 AM 10.4 °F -4.8 °F 1.4 °F 67% 29.74 in 5.0 mi NW 12.7 mph 20.7 mph N/A   Overcast
1:15 AM 8.6 °F -6.3 °F 1.4 °F 73% 29.74 in 6.0 mi WNW 11.5 mph 17.3 mph N/A   Overcast
1:35 AM 8.6 °F -3.7 °F -0.4 °F 67% 29.74 in 5.0 mi WNW 8.1 mph 18.4 mph N/A   Overcast
1:55 AM 8.6 °F -2.6 °F 1.4 °F 73% 29.74 in 3.0 mi WNW 6.9 mph - N/A   Overcast
2:15 AM 6.8 °F -8.6 °F -0.4 °F 72% 29.74 in 5.0 mi NW 11.5 mph 23.0 mph N/A   Overcast
2:35 AM 6.8 °F -8.6 °F -0.4 °F 72% 29.75 in 9.0 mi WNW 11.5 mph 17.3 mph N/A   Overcast
2:55 AM 6.8 °F -6.9 °F -2.2 °F 67% 29.75 in 10.0 mi NW 9.2 mph 27.6 mph N/A   Overcast
3:15 AM 6.8 °F -6.9 °F -2.2 °F 67% 29.76 in 5.0 mi NW 9.2 mph - N/A   Overcast
3:35 AM 5.0 °F -10.0 °F -0.4 °F 78% 29.76 in 5.0 mi NW 10.4 mph 18.4 mph N/A   Overcast
3:55 AM 5.0 °F -11.6 °F -2.2 °F 72% 29.77 in 7.0 mi NW 12.7 mph 17.3 mph N/A   Overcast
4:15 AM 3.2 °F -9.1 °F -4.0 °F 72% 29.77 in 8.0 mi NW 6.9 mph 19.6 mph N/A   Overcast
4:35 AM 3.2 °F -11.3 °F -4.0 °F 72% 29.79 in 9.0 mi WNW 9.2 mph 17.3 mph N/A   Overcast
4:55 AM 3.2 °F -12.2 °F -5.8 °F 66% 29.79 in 10.0 mi NW 10.4 mph 17.3 mph N/A   Mostly Cloudy
5:15 AM 3.2 °F -9.1 °F -5.8 °F 66% 29.81 in 10.0 mi NW 6.9 mph - N/A   Mostly Cloudy
5:35 AM 1.4 °F -14.5 °F -5.8 °F 72% 29.82 in 10.0 mi NW 10.4 mph 17.3 mph N/A   Mostly Cloudy
5:55 AM 1.4 °F -15.3 °F -4.0 °F 78% 29.83 in 10.0 mi WNW 11.5 mph 16.1 mph N/A   Mostly Cloudy
6:15 AM 1.4 °F -13.5 °F -5.8 °F 72% 29.83 in 10.0 mi NW 9.2 mph - N/A   Partly Cloudy
6:35 AM 1.4 °F -11.3 °F -5.8 °F 72% 29.84 in 10.0 mi NW 6.9 mph 17.3 mph N/A   Clear
6:55 AM 1.4 °F -14.5 °F -5.8 °F 72% 29.85 in 10.0 mi WNW 10.4 mph 16.1 mph N/A   Partly Cloudy
7:15 AM 1.4 °F -13.5 °F -5.8 °F 72% 29.86 in 10.0 mi WNW 9.2 mph 18.4 mph N/A   Clear
7:35 AM 1.4 °F -12.5 °F -5.8 °F 72% 29.87 in 10.0 mi WNW 8.1 mph - N/A   Clear
7:55 AM 1.4 °F -13.5 °F -5.8 °F 72% 29.88 in 10.0 mi NW 9.2 mph - N/A   Clear
8:15 AM 1.4 °F -12.5 °F -5.8 °F 72% 29.90 in 10.0 mi NW 8.1 mph - N/A   Clear
8:35 AM 3.2 °F -11.3 °F -5.8 °F 66% 29.90 in 10.0 mi WNW 9.2 mph - N/A   Clear
8:55 AM 3.2 °F -10.3 °F -5.8 °F 66% 29.92 in 10.0 mi WNW 8.1 mph 17.3 mph N/A   Clear
9:15 AM 3.2 °F -10.3 °F -5.8 °F 66% 29.93 in 10.0 mi NW 8.1 mph - N/A   Clear
9:35 AM 5.0 °F -8.1 °F -5.8 °F 61% 29.94 in 10.0 mi WNW 8.1 mph - N/A   Clear
9:55 AM 6.8 °F -7.8 °F -2.2 °F 67% 29.95 in 10.0 mi NW 10.4 mph 17.3 mph N/A   Clear
10:15 AM 8.6 °F -3.7 °F -2.2 °F 62% 29.96 in 10.0 mi NW 8.1 mph 17.3 mph N/A   Partly Cloudy
10:35 AM 8.6 °F -3.7 °F -2.2 °F 62% 29.98 in 10.0 mi WNW 8.1 mph 18.4 mph N/A   Scattered Clouds
10:55 AM 8.6 °F -6.3 °F -2.2 °F 62% 29.99 in 10.0 mi WNW 11.5 mph 20.7 mph N/A   Scattered Clouds
11:15 AM 10.4 °F -6.0 °F -0.4 °F 62% 29.99 in 10.0 mi West 15.0 mph 21.9 mph N/A   Mostly Cloudy
11:35 AM 10.4 °F -5.4 °F -0.4 °F 62% 30.00 in 10.0 mi WNW 13.8 mph 20.7 mph N/A   Mostly Cloudy
11:55 AM 10.4 °F -2.4 °F -0.4 °F 62% 30.00 in 10.0 mi WNW 9.2 mph 19.6 mph N/A   Scattered Clouds
12:15 PM 12.2 °F -4.3 °F -0.4 °F 57% 30.01 in 10.0 mi West 16.1 mph 19.6 mph N/A   Scattered Clouds
12:35 PM 12.2 °F 1.7 °F 1.4 °F 62% 30.01 in 10.0 mi NW 6.9 mph 19.6 mph N/A   Partly Cloudy
12:55 PM 12.2 °F -4.3 °F 1.4 °F 62% 30.02 in 10.0 mi West 16.1 mph 23.0 mph N/A   Clear
1:15 PM 12.2 °F 0.7 °F -0.4 °F 57% 30.02 in 10.0 mi NW 8.1 mph 19.6 mph N/A   Clear
1:35 PM 14.0 °F 1.2 °F 5.0 °F 67% 30.03 in 10.0 mi WNW 10.4 mph 25.3 mph N/A   Scattered Clouds
1:55 PM 15.8 °F 4.2 °F 1.4 °F 53% 30.02 in 10.0 mi NW 9.2 mph 18.4 mph N/A   Partly Cloudy
2:15 PM 15.8 °F 4.2 °F 1.4 °F 53% 30.02 in 10.0 mi WNW 9.2 mph 20.7 mph N/A   Clear
2:35 PM 15.8 °F 4.2 °F 3.2 °F 58% 30.01 in 10.0 mi NW 9.2 mph 23.0 mph N/A   Clear
2:55 PM 17.6 °F 2.7 °F 3.2 °F 53% 30.01 in 10.0 mi West 16.1 mph - N/A   Clear
3:15 PM 17.6 °F 3.7 °F 1.4 °F 49% 30.01 in 10.0 mi WNW 13.8 mph 18.4 mph N/A   Partly Cloudy
3:35 PM 19.4 °F 4.1 °F 6.8 °F 58% 30.01 in 10.0 mi West 18.4 mph 23.0 mph N/A   Partly Cloudy
3:55 PM 19.4 °F 8.6 °F 3.2 °F 49% 30.02 in 10.0 mi West 9.2 mph 18.4 mph N/A   Clear
4:15 PM 19.4 °F 5.0 °F 5.0 °F 54% 30.01 in 10.0 mi West 16.1 mph 21.9 mph N/A   Clear
4:35 PM 19.4 °F 6.0 °F 1.4 °F 46% 30.03 in 10.0 mi WSW 13.8 mph 19.6 mph N/A   Clear
4:55 PM 19.4 °F 9.5 °F 3.2 °F 49% 30.03 in 10.0 mi WNW 8.1 mph 19.6 mph N/A   Clear
5:15 PM 19.4 °F 6.6 °F 3.2 °F 49% 30.02 in 10.0 mi West 12.7 mph - N/A   Clear
5:35 PM 19.4 °F 7.9 °F 1.4 °F 46% 30.03 in 10.0 mi WNW 10.4 mph 17.3 mph N/A   Clear
5:55 PM 19.4 °F 8.6 °F 1.4 °F 46% 30.03 in 10.0 mi West 9.2 mph - N/A   Clear
6:15 PM 19.4 °F 7.2 °F 1.4 °F 46% 30.03 in 10.0 mi West 11.5 mph 17.3 mph N/A   Clear
6:35 PM 19.4 °F 7.2 °F 3.2 °F 49% 30.04 in 10.0 mi WNW 11.5 mph 17.3 mph N/A   Clear
6:55 PM 19.4 °F 8.6 °F 3.2 °F 49% 30.05 in 10.0 mi West 9.2 mph - N/A   Clear
7:15 PM 19.4 °F 8.6 °F 3.2 °F 49% 30.05 in 10.0 mi West 9.2 mph - N/A   Clear
7:35 PM 17.6 °F 8.2 °F 1.4 °F 49% 30.05 in 10.0 mi West 6.9 mph - N/A   Clear
7:55 PM 17.6 °F 10.7 °F 1.4 °F 49% 30.05 in 10.0 mi WSW 4.6 mph - N/A   Clear
8:15 PM 17.6 °F 10.7 °F 1.4 °F 49% 30.05 in 10.0 mi SW 4.6 mph - N/A   Clear
8:35 PM 17.6 °F 9.3 °F 3.2 °F 53% 30.06 in 10.0 mi SW 5.8 mph - N/A   Clear
8:55 PM 17.6 °F 9.3 °F 3.2 °F 53% 30.05 in 10.0 mi SW 5.8 mph - N/A   Clear
9:15 PM 19.4 °F 11.5 °F 3.2 °F 49% 30.05 in 10.0 mi SW 5.8 mph - N/A   Scattered Clouds
9:35 PM 19.4 °F 11.5 °F 3.2 °F 49% 30.05 in 10.0 mi SW 5.8 mph - N/A   Mostly Cloudy
9:55 PM 19.4 °F 11.5 °F 3.2 °F 49% 30.06 in 10.0 mi SW 5.8 mph - N/A   Scattered Clouds
10:15 PM 19.4 °F 11.5 °F 1.4 °F 46% 30.05 in 10.0 mi SSW 5.8 mph - N/A   Mostly Cloudy
10:35 PM 19.4 °F 12.8 °F 3.2 °F 49% 30.05 in 10.0 mi SSW 4.6 mph - N/A   Overcast
10:55 PM 19.4 °F 11.5 °F 3.2 °F 49% 30.05 in 10.0 mi SSW 5.8 mph - N/A   Overcast
11:15 PM 19.4 °F 10.4 °F 5.0 °F 54% 30.05 in 10.0 mi SSW 6.9 mph - N/A   Overcast
11:35 PM 19.4 °F 10.4 °F 6.8 °F 58% 30.04 in 10.0 mi SSW 6.9 mph - N/A   Overcast
11:55 PM 21.2 °F 11.7 °F 6.8 °F 54% 30.04 in 10.0 mi SSW 8.1 mph - N/A   Overcast